EW3309 Weather Reports


Display with metric or nautical units.
time (UTC)temp
F
wind
direction
speed
MPH
gust
MPH
rain 1hr
in
rain 24hr
in
rain mn
in
humidity
%
barometer
mb
20260831074522 69 321 0.0 0.0 0.00 0.00 0.00 86 1011.0
20260831073033 69 321 0.0 0.0 0.00 0.00 0.00 85 1011.0
20260831071519 69 321 0.0 0.0 0.00 0.00 0.00 85 1011.1
20260831070016 70 321 0.0 0.0 0.00 0.00 0.00 85 1011.0
20260831064519 70 321 0.0 0.0 0.00 0.00 0.00 85 1011.1
20260831063021 70 321 0.0 0.0 0.00 0.00 0.00 85 1011.0
20260831061512 71 321 0.0 0.0 0.00 0.00 0.00 85 1010.9
20260831060012 71 321 0.0 0.0 0.00 0.00 0.00 84 1011.1
20260831054510 71 321 0.0 0.0 0.00 0.00 0.00 84 1010.9
20260831053010 71 321 0.0 0.0 0.00 0.00 0.00 84 1010.8
20260831051509 72 321 0.0 0.0 0.00 0.00 0.00 84 1010.7
20260831050009 72 324 0.0 0.0 0.00 0.00 0.00 83 1010.8
20260831044509 73 323 0.0 0.0 0.00 0.00 0.00 83 1010.7
20260831043007 73 304 0.0 0.0 0.00 0.00 0.00 81 1010.6
20260831041507 74 299 0.0 0.0 0.00 0.00 0.00 80 1010.4
20260831040010 74 279 0.0 0.0 0.00 0.00 0.00 78 1010.3
20260831034506 75 286 0.0 0.0 0.00 0.00 0.00 77 1010.1
20260831033006 76 286 0.0 0.0 0.00 0.00 0.00 75 1009.8
20260831031505 76 278 0.0 0.0 0.00 0.00 0.00 73 1009.6
20260831030005 77 276 0.0 0.0 0.00 0.00 0.00 70 1009.4
20260831024506 78 256 0.0 0.0 0.00 0.00 0.00 68 1009.4
20260831023004 80 227 0.0 0.0 0.00 0.00 0.00 65 1009.4
20260831021503 81 238 0.0 0.0 0.00 0.00 0.00 62 1009.2
20260831020004 83 210 0.0 0.0 0.00 0.00 0.00 60 1009.1
20260831014505 84 207 0.0 0.0 0.00 0.00 0.00 57 1009.1
20260831013002 85 250 0.0 0.0 0.00 0.00 0.00 54 1009.1
20260831011506 86 214 0.0 0.0 0.00 0.00 0.00 51 1009.1
20260831010001 87 225 0.0 0.0 0.00 0.00 0.00 50 1009.0
20260831004606 88 211 0.0 0.0 0.00 0.00 0.00 49 1008.9
20260831004501 88 207 0.0 0.0 0.00 0.00 0.00 49 1008.9
20260831003109 88 229 0.0 0.0 0.00 0.00 0.00 49 1009.1
20260831001600 88 270 0.0 0.0 0.00 0.00 0.00 50 1009.0
20260831000058 89 200 0.0 0.0 0.00 0.00 0.00 49 1008.9
20260830234605 90 227 0.0 0.0 0.00 0.00 0.00 48 1008.9
20260830233052 91 244 0.0 0.0 0.00 0.00 0.00 46 1008.9
20260830231600 92 264 0.0 0.0 0.00 0.00 0.00 43 1009.0
20260830230051 92 202 0.0 0.0 0.00 0.00 0.00 41 1009.0
20260830224600 93 180 0.0 0.0 0.00 0.00 0.00 38 1009.1
20260830223048 93 217 0.0 0.0 0.00 0.00 0.00 35 1009.2
20260830221542 93 248 0.0 0.0 0.00 0.00 0.00 35 1009.4
20260830220041 93 213 0.0 0.0 0.00 0.00 0.00 33 1009.6
20260830214542 93 225 0.0 0.0 0.00 0.00 0.00 32 1009.6
20260830213038 93 237 0.0 0.0 0.00 0.00 0.00 31 1009.7
20260830211538 93 252 0.0 0.0 0.00 0.00 0.00 31 1009.8
20260830210044 93 253 0.0 0.0 0.00 0.00 0.00 32 1010.1
20260830204539 93 237 0.0 0.0 0.00 0.00 0.00 30 1010.2
20260830203034 92 279 0.0 0.0 0.00 0.00 0.00 34 1010.3
20260830201532 91 225 0.0 0.0 0.00 0.00 0.00 36 1010.2
20260830200030 91 241 0.0 0.0 0.00 0.00 0.00 37 1010.2
20260830194529 91 287 0.0 0.0 0.00 0.00 0.00 38 1010.3
20260830193025 91 254 0.0 0.0 0.00 0.00 0.00 42 1010.4
20260830191522 90 258 0.0 0.0 0.00 0.00 0.00 43 1010.5
20260830190020 89 263 0.0 0.0 0.00 0.00 0.00 44 1010.6
20260830184515 88 230 0.0 0.0 0.00 0.00 0.00 48 1010.6
20260830183012 88 259 0.0 0.0 0.00 0.00 0.00 50 1010.7
20260830181509 87 243 0.0 0.0 0.00 0.00 0.00 52 1010.9
20260830180005 85 265 0.0 0.0 0.00 0.00 0.00 58 1010.8
20260830174600 83 243 0.0 0.0 0.00 0.00 0.00 65 1010.8
20260830173111 81 242 0.0 0.0 0.00 0.00 0.00 70 1010.7
20260830171552 79 223 0.0 0.0 0.00 0.00 0.00 75 1010.6
20260830170054 77 224 0.0 0.0 0.00 0.00 0.00 78 1010.6
20260830164549 76 199 0.0 0.0 0.00 0.00 0.00 81 1010.4
20260830163049 74 211 0.0 0.0 0.00 0.00 0.00 84 1010.5
20260830161543 74 149 0.0 0.0 0.00 0.00 0.00 85 1010.6
20260830160032 73 215 0.0 0.0 0.00 0.00 0.00 86 1010.5
20260830154532 73 213 0.0 0.0 0.00 0.00 0.00 87 1010.7
20260830153042 73 212 0.0 0.0 0.00 0.00 0.00 87 1010.7
20260830151523 73 225 0.0 0.0 0.00 0.00 0.00 88 1010.6
20260830150019 72 194 0.0 0.0 0.00 0.00 0.00 88 1010.6
20260830144518 72 190 0.0 0.0 0.00 0.00 0.00 89 1010.6
20260830143014 72 194 0.0 0.0 0.00 0.00 0.00 89 1010.6
20260830141516 72 194 0.0 0.0 0.00 0.00 0.00 89 1010.5
20260830140006 71 179 0.0 0.0 0.00 0.00 0.00 89 1010.4
20260830134508 71 179 0.0 0.0 0.00 0.00 0.00 89 1010.2
20260830133101 70 179 0.0 0.0 0.00 0.00 0.00 88 1010.2
20260830131627 70 179 0.0 0.0 0.00 0.00 0.00 88 1010.1
20260830130101 70 179 0.0 0.0 0.00 0.00 0.00 88 1010.0
20260830124558 70 329 0.0 0.0 0.00 0.00 0.00 87 1010.0
20260830123101 70 329 0.0 0.0 0.00 0.00 0.00 87 1010.0
20260830121557 70 329 0.0 0.0 0.00 0.00 0.00 87 1009.9
20260830120057 70 329 0.0 0.0 0.00 0.00 0.00 88 1009.9
20260830114601 70 329 0.0 0.0 0.00 0.00 0.00 87 1010.0
20260830113054 69 329 0.0 0.0 0.00 0.00 0.00 86 1009.9
20260830111554 69 329 0.0 0.0 0.00 0.00 0.00 84 1009.8
20260830104557 70 329 0.0 0.0 0.00 0.00 0.00 85 1009.7
20260830103047 70 329 0.0 0.0 0.00 0.00 0.00 84 1009.7
20260830101546 70 329 0.0 0.0 0.00 0.00 0.00 85 1009.6
20260830100045 71 329 0.0 0.0 0.00 0.00 0.00 84 1009.5
20260830094544 71 329 0.0 0.0 0.00 0.00 0.00 85 1009.4
20260830093045 71 329 0.0 0.0 0.00 0.00 0.00 83 1009.6
20260830091546 71 329 0.0 0.0 0.00 0.00 0.00 81 1009.6
20260830090042 71 329 0.0 0.0 0.00 0.00 0.00 81 1009.8
20260830084540 71 329 0.0 0.0 0.00 0.00 0.00 78 1009.6
20260830083049 71 329 0.0 0.0 0.00 0.00 0.00 79 1009.5
20260830081536 72 329 0.0 0.0 0.00 0.00 0.00 80 1009.5
20260830080035 72 329 0.0 0.0 0.00 0.00 0.00 79 1009.6